Weather History for Benton Harbor, MI

Change the Weather History Date:

Friday, April 11, 2014

  Actual Average Record
Temperature  
Mean Temperature 46 °F -  
Max Temperature 63 °F 53 °F 79 °F (1977)
Min Temperature 30 °F 32 °F 18 °F (1952)
Degree Days  
Heating Degree Days 19    
Moisture  
Dew Point 25 °F    
Average Humidity 48    
Maximum Humidity 100    
Minimum Humidity 18    
Precipitation  
Precipitation 0.00 in - - ()
Sea Level Pressure  
Sea Level Pressure 30.01 in    
Wind  
Wind Speed 3 mph (SSW)    
Max Wind Speed 12 mph    
Max Gust Speed -    
Visibility 9 miles    
Events      
Averages and records for this station are not official NWS values.
T = Trace of Precipitation, MM = Missing Value Source: NWS Daily Summary

Daily Weather History Graph

Daily Weather History Graph

Search for Another Location

Airport:

Trip Planner

Search our weather history database for the weather conditions in past years. The results will help you decide how hot, cold, wet, or windy it might be!

Date:

Astronomy

Apr. 11, 2014 Rise Set
Actual Time 7:11 AM EDT 8:22 PM EDT
Civil Twilight 6:42 AM EDT 8:51 PM EDT
Nautical Twilight 6:08 AM EDT 9:26 PM EDT
Astronomical Twilight 5:32 AM EDT 10:02 PM EDT
Moon 4:59 PM EDT (4/11) 5:10 AM EDT (4/11)
Length of Visible Light 14h 08m
Length of Day
13h 11m
Waxing Gibbous, 87% of the Moon is Illuminated
Apr 11
Waxing Gibbous
Apr 15
Full
Apr 22
Last Quarter
Apr 29
New
May 6
First Quarter

Hourly Weather History & Observations

Time (EDT) Temp. Windchill Dew Point Humidity Pressure Visibility Wind Dir Wind Speed Gust Speed Precip Events Conditions
12:53 AM 37.0 °F - 35.1 °F 93% 29.93 in 8.0 mi Calm Calm - N/A   Clear
1:53 AM 34.0 °F - 33.1 °F 96% 29.94 in 6.0 mi Calm Calm - N/A   Clear
2:53 AM 35.1 °F - 34.0 °F 96% 29.98 in 7.0 mi Calm Calm - N/A   Clear
5:53 AM 32.0 °F - 32.0 °F 100% 29.99 in 6.0 mi Calm Calm - N/A   Clear
6:53 AM 30.9 °F - 30.0 °F 96% 30.00 in 5.0 mi Calm Calm - N/A   Clear
7:53 AM 30.0 °F 26.5 °F 30.0 °F 100% 30.02 in 5.0 mi SSE 3.5 mph - N/A   Clear
8:53 AM 42.1 °F - 37.9 °F 85% 30.03 in 8.0 mi Calm Calm - N/A   Clear
9:53 AM 53.1 °F - 28.9 °F 40% 30.04 in 10.0 mi East 3.5 mph - N/A   Clear
10:53 AM 57.9 °F - 21.9 °F 25% 30.05 in 10.0 mi Calm Calm - N/A   Clear
11:53 AM 59.0 °F - 23.0 °F 25% 30.04 in 10.0 mi Variable 3.5 mph - N/A   Clear
12:53 PM 60.1 °F - 26.1 °F 27% 30.04 in 10.0 mi WSW 6.9 mph - N/A   Clear
1:53 PM 61.0 °F - 19.0 °F 20% 30.03 in 10.0 mi West 8.1 mph - N/A   Clear
2:53 PM 62.1 °F - 19.9 °F 20% 30.02 in 10.0 mi West 8.1 mph - N/A   Clear
3:53 PM 61.0 °F - 19.0 °F 20% 30.01 in 10.0 mi West 10.4 mph - N/A   Clear
4:53 PM 62.1 °F - 18.0 °F 18% 30.00 in 10.0 mi West 11.5 mph - N/A   Clear
5:53 PM 61.0 °F - 18.0 °F 19% 30.01 in 10.0 mi SW 6.9 mph - N/A   Clear
6:53 PM 61.0 °F - 18.0 °F 19% 30.01 in 10.0 mi West 3.5 mph - N/A   Overcast
7:53 PM 60.1 °F - 19.9 °F 21% 29.99 in 10.0 mi SE 3.5 mph - N/A   Scattered Clouds
8:53 PM 57.0 °F - 21.0 °F 25% 29.99 in 10.0 mi SSE 3.5 mph - N/A   Mostly Cloudy
9:53 PM 53.1 °F - 23.0 °F 31% 30.00 in 10.0 mi SSE 4.6 mph - N/A   Clear
10:53 PM 52.0 °F - 24.1 °F 34% 30.00 in 10.0 mi SSE 6.9 mph - N/A   Partly Cloudy
11:53 PM 48.0 °F - 25.0 °F 41% 30.01 in 10.0 mi SSE 3.5 mph - N/A   Clear